Location: Honolulu
(21.3069°N, 157.8583°W)
Time: 02:18:08
(UTC-10:00)

Transit 2A Rocket - Pass Details

Date: 12 April 2026
Orbit: 587 x 895 km, 66.7° (Epoch: 18 May)

Event Time Altitude Azimuth Distance (km) Brightness Sun altitude
Exits shadow 04:02:06 10° 336° (NNW) 2,487 7.6 -30.3°
Drops below altitude 10° 04:02:10 10° 337° (NNW) 2,503 7.6 -30.3°
Sets 04:05:38 0° 358° (N) 3,394 8.6 -29.6°
